Wetterdaten: Sonntag, 26.07.2015
Datum Zeit Temp. A. Feuchte A. Luftdruck Regen Wind Richtung Richtung Sonnenschein ET UV Solar Taupunkt Windchill Windben Empfang
26.07.2015 00:00 15,1 C 77 % 1014,6 hPa 0,0 l/m 0,4 km/h (0 Bft) N-NW 340 0 min 0,000 mm 0,0 UV-I 0 W/m 11,1 C 15,1 C 4,0 km/h (1 Bft) 0,00 %
26.07.2015 00:05 15,1 C 73 % 1014,9 hPa 0,0 l/m 0,0 km/h (0 Bft) N 357 0 min 0,000 mm 0,0 UV-I 0 W/m 10,3 C 15,1 C 0,0 km/h (0 Bft) 0,00 %
26.07.2015 00:10 15,2 C 69 % 1014,8 hPa 0,0 l/m 1,4 km/h (1 Bft) W 274 0 min 0,000 mm 0,0 UV-I 0 W/m 9,6 C 15,2 C 4,0 km/h (1 Bft) 0,00 %
26.07.2015 00:15 15,3 C 67 % 1014,9 hPa 0,0 l/m 4,3 km/h (1 Bft) NW 309 0 min 0,000 mm 0,0 UV-I 0 W/m 9,2 C 15,3 C 7,9 km/h (2 Bft) 0,00 %
26.07.2015 00:20 15,4 C 66 % 1014,8 hPa 0,0 l/m 0,4 km/h (0 Bft) NO 46 0 min 0,000 mm 0,0 UV-I 0 W/m 9,1 C 15,4 C 4,0 km/h (1 Bft) 0,00 %
26.07.2015 00:25 15,4 C 69 % 1015,0 hPa 0,0 l/m 0,0 km/h (0 Bft) N-NO 30 0 min 0,000 mm 0,0 UV-I 0 W/m 9,7 C 15,4 C 0,0 km/h (0 Bft) 0,00 %
26.07.2015 00:30 15,3 C 68 % 1015,1 hPa 0,0 l/m 4,7 km/h (1 Bft) NW 316 0 min 0,000 mm 0,0 UV-I 0 W/m 9,4 C 15,3 C 7,9 km/h (2 Bft) 0,00 %
26.07.2015 00:35 15,2 C 66 % 1015,0 hPa 0,0 l/m 2,9 km/h (1 Bft) W 264 0 min 0,000 mm 0,0 UV-I 0 W/m 8,9 C 15,2 C 7,9 km/h (2 Bft) 0,00 %
26.07.2015 00:40 15,2 C 65 % 1015,1 hPa 0,0 l/m 0,4 km/h (0 Bft) NO 51 0 min 0,000 mm 0,0 UV-I 0 W/m 8,7 C 15,2 C 4,0 km/h (1 Bft) 0,00 %
26.07.2015 00:45 15,2 C 64 % 1015,1 hPa 0,0 l/m 4,7 km/h (1 Bft) SW 214 0 min 0,000 mm 0,0 UV-I 0 W/m 8,4 C 15,2 C 7,9 km/h (2 Bft) 0,00 %
26.07.2015 00:50 15,3 C 63 % 1015,3 hPa 0,0 l/m 0,0 km/h (0 Bft) O-NO 62 0 min 0,000 mm 0,0 UV-I 0 W/m 8,3 C 15,3 C 0,0 km/h (0 Bft) 0,00 %
26.07.2015 00:55 15,3 C 62 % 1015,4 hPa 0,0 l/m 0,7 km/h (0 Bft) O 101 0 min 0,000 mm 0,0 UV-I 0 W/m 8,1 C 15,3 C 4,0 km/h (1 Bft) 0,00 %
26.07.2015 01:00 15,3 C 61 % 1015,3 hPa 0,0 l/m 3,2 km/h (1 Bft) W 266 0 min 0,000 mm 0,0 UV-I 0 W/m 7,8 C 15,3 C 7,9 km/h (2 Bft) 0,00 %
26.07.2015 01:05 15,3 C 61 % 1015,5 hPa 0,0 l/m 1,4 km/h (1 Bft) N 352 0 min 0,000 mm 0,0 UV-I 0 W/m 7,8 C 15,3 C 4,0 km/h (1 Bft) 0,00 %
26.07.2015 01:10 15,2 C 61 % 1015,4 hPa 0,0 l/m 0,0 km/h (0 Bft) N-NO 18 0 min 0,000 mm 0,0 UV-I 0 W/m 7,7 C 15,2 C 0,0 km/h (0 Bft) 0,00 %
26.07.2015 01:15 15,2 C 62 % 1015,5 hPa 0,0 l/m 0,0 km/h (0 Bft) NW 322 0 min 0,000 mm 0,0 UV-I 0 W/m 8,0 C 15,2 C 0,0 km/h (0 Bft) 0,00 %
26.07.2015 01:20 15,2 C 62 % 1015,6 hPa 0,0 l/m 1,8 km/h (1 Bft) W-SW 255 0 min 0,000 mm 0,0 UV-I 0 W/m 8,0 C 15,2 C 4,0 km/h (1 Bft) 0,00 %
26.07.2015 01:25 15,2 C 63 % 1015,7 hPa 0,0 l/m 0,0 km/h (0 Bft) N 354 0 min 0,000 mm 0,0 UV-I 0 W/m 8,2 C 15,2 C 0,0 km/h (0 Bft) 0,00 %
26.07.2015 01:30 15,1 C 64 % 1015,6 hPa 0,0 l/m 0,0 km/h (0 Bft) NO 49 0 min 0,000 mm 0,0 UV-I 0 W/m 8,3 C 15,1 C 0,0 km/h (0 Bft) 0,00 %
26.07.2015 01:35 15,0 C 68 % 1015,7 hPa 0,0 l/m 0,0 km/h (0 Bft) N-NW 346 0 min 0,000 mm 0,0 UV-I 0 W/m 9,1 C 15,0 C 0,0 km/h (0 Bft) 0,00 %
26.07.2015 01:40 14,8 C 68 % 1015,7 hPa 0,0 l/m 0,4 km/h (0 Bft) N-NO 22 0 min 0,000 mm 0,0 UV-I 0 W/m 9,0 C 14,8 C 4,0 km/h (1 Bft) 0,00 %
26.07.2015 01:45 14,7 C 67 % 1015,7 hPa 0,0 l/m 1,8 km/h (1 Bft) S 182 0 min 0,000 mm 0,0 UV-I 0 W/m 8,6 C 14,7 C 4,0 km/h (1 Bft) 0,00 %
26.07.2015 01:50 14,6 C 64 % 1015,9 hPa 0,0 l/m 0,7 km/h (0 Bft) N-NO 27 0 min 0,000 mm 0,0 UV-I 0 W/m 7,9 C 14,6 C 4,0 km/h (1 Bft) 0,00 %
26.07.2015 01:55 14,6 C 64 % 1015,8 hPa 0,0 l/m 5,4 km/h (1 Bft) SW 216 0 min 0,000 mm 0,0 UV-I 0 W/m 7,9 C 14,6 C 7,9 km/h (2 Bft) 0,00 %
26.07.2015 02:00 14,6 C 64 % 1015,7 hPa 0,0 l/m 6,8 km/h (2 Bft) W-SW 256 0 min 0,000 mm 0,0 UV-I 0 W/m 7,9 C 14,4 C 7,9 km/h (2 Bft) 0,00 %
26.07.2015 02:05 14,5 C 63 % 1015,8 hPa 0,0 l/m 0,0 km/h (0 Bft) NO 39 0 min 0,000 mm 0,0 UV-I 0 W/m 7,5 C 14,5 C 0,0 km/h (0 Bft) 0,00 %
26.07.2015 02:10 14,4 C 64 % 1015,9 hPa 0,0 l/m 0,7 km/h (0 Bft) N-NW 338 0 min 0,000 mm 0,0 UV-I 0 W/m 7,7 C 14,4 C 4,0 km/h (1 Bft) 0,00 %
26.07.2015 02:15 14,3 C 65 % 1016,0 hPa 0,0 l/m 2,2 km/h (1 Bft) N-NW 337 0 min 0,000 mm 0,0 UV-I 0 W/m 7,8 C 14,3 C 4,0 km/h (1 Bft) 0,00 %
26.07.2015 02:20 14,1 C 65 % 1016,0 hPa 0,0 l/m 4,7 km/h (1 Bft) N-NW 348 0 min 0,000 mm 0,0 UV-I 0 W/m 7,6 C 14,1 C 11,9 km/h (2 Bft) 0,00 %
26.07.2015 02:25 14,1 C 64 % 1015,8 hPa 0,0 l/m 0,4 km/h (0 Bft) W-NW 288 0 min 0,000 mm 0,0 UV-I 0 W/m 7,4 C 14,1 C 4,0 km/h (1 Bft) 0,00 %
26.07.2015 02:30 14,1 C 64 % 1015,9 hPa 0,0 l/m 1,4 km/h (1 Bft) NW 311 0 min 0,000 mm 0,0 UV-I 0 W/m 7,4 C 14,1 C 4,0 km/h (1 Bft) 0,00 %
26.07.2015 02:35 14,0 C 64 % 1016,2 hPa 0,0 l/m 9,0 km/h (2 Bft) W-SW 256 0 min 0,000 mm 0,0 UV-I 0 W/m 7,3 C 12,5 C 11,9 km/h (2 Bft) 0,00 %
26.07.2015 02:40 14,0 C 63 % 1016,3 hPa 0,0 l/m 7,2 km/h (2 Bft) W 271 0 min 0,000 mm 0,0 UV-I 0 W/m 7,1 C 13,5 C 11,9 km/h (2 Bft) 0,00 %
26.07.2015 02:45 14,0 C 64 % 1016,2 hPa 0,0 l/m 1,8 km/h (1 Bft) N-NW 336 0 min 0,000 mm 0,0 UV-I 0 W/m 7,3 C 14,0 C 4,0 km/h (1 Bft) 0,00 %
26.07.2015 02:50 13,9 C 67 % 1016,2 hPa 0,0 l/m 5,4 km/h (1 Bft) W-SW 254 0 min 0,000 mm 0,0 UV-I 0 W/m 7,9 C 13,9 C 7,9 km/h (2 Bft) 0,00 %
26.07.2015 02:55 13,7 C 68 % 1016,4 hPa 0,0 l/m 4,7 km/h (1 Bft) W-NW 287 0 min 0,000 mm 0,0 UV-I 0 W/m 7,9 C 13,7 C 7,9 km/h (2 Bft) 0,00 %
26.07.2015 03:00 13,5 C 69 % 1016,5 hPa 0,0 l/m 4,0 km/h (1 Bft) W 262 0 min 0,000 mm 0,0 UV-I 0 W/m 7,9 C 13,5 C 7,9 km/h (2 Bft) 0,00 %
26.07.2015 03:05 13,4 C 70 % 1016,3 hPa 0,0 l/m 4,7 km/h (1 Bft) W-NW 288 0 min 0,000 mm 0,0 UV-I 0 W/m 8,0 C 13,4 C 7,9 km/h (2 Bft) 0,00 %
26.07.2015 03:10 13,3 C 70 % 1016,3 hPa 0,0 l/m 7,2 km/h (2 Bft) W-NW 294 0 min 0,000 mm 0,0 UV-I 0 W/m 7,9 C 12,8 C 7,9 km/h (2 Bft) 0,00 %
26.07.2015 03:15 13,2 C 70 % 1016,5 hPa 0,0 l/m 7,2 km/h (2 Bft) S-SW 209 0 min 0,000 mm 0,0 UV-I 0 W/m 7,9 C 12,7 C 7,9 km/h (2 Bft) 0,00 %
26.07.2015 03:20 13,2 C 69 % 1016,5 hPa 0,0 l/m 2,9 km/h (1 Bft) W 269 0 min 0,000 mm 0,0 UV-I 0 W/m 7,6 C 13,2 C 4,0 km/h (1 Bft) 0,00 %
26.07.2015 03:25 13,1 C 68 % 1016,6 hPa 0,0 l/m 4,0 km/h (1 Bft) W-NW 282 0 min 0,000 mm 0,0 UV-I 0 W/m 7,3 C 13,1 C 7,9 km/h (2 Bft) 0,00 %
26.07.2015 03:30 13,1 C 68 % 1016,4 hPa 0,0 l/m 6,5 km/h (2 Bft) W-SW 250 0 min 0,000 mm 0,0 UV-I 0 W/m 7,3 C 13,1 C 7,9 km/h (2 Bft) 0,00 %
26.07.2015 03:35 13,2 C 68 % 1016,6 hPa 0,0 l/m 3,2 km/h (1 Bft) W-NW 296 0 min 0,000 mm 0,0 UV-I 0 W/m 7,4 C 13,2 C 7,9 km/h (2 Bft) 0,00 %
26.07.2015 03:40 13,1 C 68 % 1016,5 hPa 0,0 l/m 9,0 km/h (2 Bft) W-NW 303 0 min 0,000 mm 0,0 UV-I 0 W/m 7,3 C 11,5 C 11,9 km/h (2 Bft) 0,00 %
26.07.2015 03:45 13,0 C 70 % 1016,5 hPa 0,0 l/m 0,0 km/h (0 Bft) N 353 0 min 0,000 mm 0,0 UV-I 0 W/m 7,7 C 13,0 C 0,0 km/h (0 Bft) 0,00 %
26.07.2015 03:50 12,9 C 71 % 1016,5 hPa 0,0 l/m 7,2 km/h (2 Bft) W-SW 255 0 min 0,000 mm 0,0 UV-I 0 W/m 7,8 C 12,4 C 11,9 km/h (2 Bft) 0,00 %
26.07.2015 03:55 12,8 C 72 % 1016,6 hPa 0,0 l/m 9,0 km/h (2 Bft) W-SW 257 0 min 0,000 mm 0,0 UV-I 0 W/m 7,9 C 11,2 C 11,9 km/h (2 Bft) 0,00 %
26.07.2015 04:00 12,7 C 72 % 1016,6 hPa 0,0 l/m 6,5 km/h (2 Bft) W-SW 249 0 min 0,000 mm 0,0 UV-I 0 W/m 7,8 C 12,7 C 11,9 km/h (2 Bft) 0,00 %
26.07.2015 04:05 12,7 C 71 % 1016,8 hPa 0,0 l/m 7,2 km/h (2 Bft) S-SW 205 0 min 0,000 mm 0,0 UV-I 0 W/m 7,6 C 12,2 C 11,9 km/h (2 Bft) 0,00 %
26.07.2015 04:10 12,7 C 71 % 1016,9 hPa 0,0 l/m 0,7 km/h (0 Bft) NW 313 0 min 0,000 mm 0,0 UV-I 0 W/m 7,6 C 12,7 C 4,0 km/h (1 Bft) 0,00 %
26.07.2015 04:15 12,6 C 71 % 1016,8 hPa 0,0 l/m 0,0 km/h (0 Bft) N-NO 24 0 min 0,000 mm 0,0 UV-I 0 W/m 7,5 C 12,6 C 0,0 km/h (0 Bft) 0,00 %
26.07.2015 04:20 12,6 C 71 % 1017,0 hPa 0,0 l/m 7,9 km/h (2 Bft) W-NW 284 0 min 0,000 mm 0,0 UV-I 0 W/m 7,5 C 11,6 C 11,9 km/h (2 Bft) 0,00 %
26.07.2015 04:25 12,6 C 71 % 1016,8 hPa 0,0 l/m 0,7 km/h (0 Bft) W-NW 295 0 min 0,000 mm 0,0 UV-I 0 W/m 7,5 C 12,6 C 4,0 km/h (1 Bft) 0,00 %
26.07.2015 04:30 12,6 C 71 % 1016,7 hPa 0,0 l/m 1,4 km/h (1 Bft) O-NO 64 0 min 0,000 mm 0,0 UV-I 0 W/m 7,5 C 12,6 C 4,0 km/h (1 Bft) 0,00 %
26.07.2015 04:35 12,5 C 71 % 1016,8 hPa 0,0 l/m 0,0 km/h (0 Bft) NO 47 0 min 0,000 mm 0,0 UV-I 0 W/m 7,4 C 12,5 C 0,0 km/h (0 Bft) 0,00 %
26.07.2015 04:40 12,4 C 72 % 1016,9 hPa 0,0 l/m 0,0 km/h (0 Bft) NO 36 0 min 0,000 mm 0,0 UV-I 0 W/m 7,5 C 12,4 C 0,0 km/h (0 Bft) 0,00 %
26.07.2015 04:45 12,3 C 72 % 1016,9 hPa 0,0 l/m 0,7 km/h (0 Bft) N-NW 337 0 min 0,000 mm 0,0 UV-I 0 W/m 7,4 C 12,3 C 4,0 km/h (1 Bft) 0,00 %
26.07.2015 04:50 12,2 C 72 % 1016,9 hPa 0,0 l/m 0,4 km/h (0 Bft) SW 222 0 min 0,000 mm 0,0 UV-I 0 W/m 7,3 C 12,2 C 4,0 km/h (1 Bft) 0,00 %
26.07.2015 04:55 12,1 C 72 % 1017,1 hPa 0,0 l/m 0,4 km/h (0 Bft) N-NW 340 0 min 0,000 mm 0,0 UV-I 0 W/m 7,2 C 12,1 C 4,0 km/h (1 Bft) 0,00 %
26.07.2015 05:00 12,1 C 72 % 1016,9 hPa 0,0 l/m 4,3 km/h (1 Bft) W-NW 282 0 min 0,000 mm 0,0 UV-I 0 W/m 7,2 C 12,1 C 7,9 km/h (2 Bft) 0,00 %
26.07.2015 05:05 12,0 C 72 % 1017,1 hPa 0,0 l/m 0,4 km/h (0 Bft) N-NO 15 0 min 0,000 mm 0,0 UV-I 0 W/m 7,1 C 12,0 C 4,0 km/h (1 Bft) 0,00 %
26.07.2015 05:10 12,0 C 72 % 1017,1 hPa 0,0 l/m 6,5 km/h (2 Bft) W 281 0 min 0,000 mm 0,0 UV-I 0 W/m 7,1 C 12,0 C 7,9 km/h (2 Bft) 0,00 %
26.07.2015 05:15 11,9 C 72 % 1017,1 hPa 0,0 l/m 0,7 km/h (0 Bft) W-SW 255 0 min 0,000 mm 0,0 UV-I 0 W/m 7,0 C 11,9 C 4,0 km/h (1 Bft) 0,00 %
26.07.2015 05:20 11,9 C 72 % 1017,2 hPa 0,0 l/m 5,8 km/h (2 Bft) W-NW 298 0 min 0,000 mm 0,0 UV-I 0 W/m 7,0 C 11,9 C 7,9 km/h (2 Bft) 0,00 %
26.07.2015 05:25 11,9 C 72 % 1017,1 hPa 0,0 l/m 2,9 km/h (1 Bft) W 270 0 min 0,000 mm 0,0 UV-I 0 W/m 7,0 C 11,9 C 7,9 km/h (2 Bft) 0,00 %
26.07.2015 05:30 11,9 C 71 % 1017,4 hPa 0,0 l/m 2,2 km/h (1 Bft) N-NW 341 0 min 0,000 mm 0,0 UV-I 0 W/m 6,8 C 11,9 C 4,0 km/h (1 Bft) 0,00 %
26.07.2015 05:35 11,8 C 72 % 1017,2 hPa 0,0 l/m 1,4 km/h (1 Bft) N-NW 332 0 min 0,000 mm 0,0 UV-I 0 W/m 6,9 C 11,8 C 4,0 km/h (1 Bft) 0,00 %
26.07.2015 05:40 11,8 C 71 % 1017,1 hPa 0,0 l/m 4,7 km/h (1 Bft) W-SW 251 0 min 0,000 mm 0,0 UV-I 0 W/m 6,7 C 11,8 C 7,9 km/h (2 Bft) 0,00 %
26.07.2015 05:45 11,8 C 71 % 1017,2 hPa 0,0 l/m 2,9 km/h (1 Bft) W-SW 257 0 min 0,000 mm 0,0 UV-I 3 W/m 6,7 C 11,8 C 7,9 km/h (2 Bft) 0,00 %
26.07.2015 05:50 11,8 C 71 % 1017,1 hPa 0,0 l/m 5,4 km/h (1 Bft) W-NW 288 0 min 0,000 mm 0,0 UV-I 7 W/m 6,7 C 11,8 C 7,9 km/h (2 Bft) 0,00 %
26.07.2015 05:55 11,8 C 71 % 1017,1 hPa 0,0 l/m 4,7 km/h (1 Bft) NW 313 5 min 0,000 mm 0,0 UV-I 27 W/m 6,7 C 11,8 C 7,9 km/h (2 Bft) 0,00 %
26.07.2015 06:00 11,8 C 71 % 1017,2 hPa 0,0 l/m 1,8 km/h (1 Bft) W-SW 251 5 min 0,000 mm 0,0 UV-I 40 W/m 6,7 C 11,8 C 4,0 km/h (1 Bft) 0,00 %
26.07.2015 06:05 11,8 C 71 % 1017,2 hPa 0,0 l/m 7,2 km/h (2 Bft) W-SW 252 5 min 0,000 mm 0,0 UV-I 51 W/m 6,7 C 11,3 C 11,9 km/h (2 Bft) 0,00 %
26.07.2015 06:10 11,9 C 71 % 1017,1 hPa 0,0 l/m 5,8 km/h (2 Bft) W 275 5 min 0,000 mm 0,0 UV-I 127 W/m 6,8 C 11,9 C 7,9 km/h (2 Bft) 0,00 %
26.07.2015 06:15 12,2 C 70 % 1017,1 hPa 0,0 l/m 2,2 km/h (1 Bft) N-NW 346 5 min 0,000 mm 0,0 UV-I 185 W/m 6,9 C 12,2 C 4,0 km/h (1 Bft) 0,00 %
26.07.2015 06:20 12,5 C 68 % 1017,0 hPa 0,0 l/m 2,2 km/h (1 Bft) N 355 5 min 0,000 mm 0,0 UV-I 209 W/m 6,8 C 12,5 C 4,0 km/h (1 Bft) 0,00 %
26.07.2015 06:25 12,7 C 68 % 1017,0 hPa 0,0 l/m 6,8 km/h (2 Bft) SW 225 5 min 0,000 mm 0,0 UV-I 232 W/m 6,9 C 12,5 C 7,9 km/h (2 Bft) 0,00 %
26.07.2015 06:30 12,8 C 66 % 1017,0 hPa 0,0 l/m 0,0 km/h (0 Bft) N-NW 347 5 min 0,000 mm 0,0 UV-I 258 W/m 6,6 C 12,8 C 0,0 km/h (0 Bft) 0,00 %
26.07.2015 06:35 13,0 C 66 % 1016,8 hPa 0,0 l/m 0,4 km/h (0 Bft) NW 307 5 min 0,000 mm 0,0 UV-I 304 W/m 6,8 C 13,0 C 4,0 km/h (1 Bft) 0,00 %
26.07.2015 06:40 13,1 C 66 % 1017,0 hPa 0,0 l/m 4,0 km/h (1 Bft) W-SW 255 5 min 0,000 mm 0,0 UV-I 318 W/m 6,9 C 13,1 C 7,9 km/h (2 Bft) 0,00 %
26.07.2015 06:45 13,3 C 65 % 1017,1 hPa 0,0 l/m 4,0 km/h (1 Bft) W-SW 251 5 min 0,000 mm 0,0 UV-I 332 W/m 6,9 C 13,3 C 11,9 km/h (2 Bft) 0,00 %
26.07.2015 06:50 13,4 C 65 % 1017,1 hPa 0,0 l/m 1,4 km/h (1 Bft) N 351 5 min 0,000 mm 1,0 UV-I 341 W/m 7,0 C 13,4 C 4,0 km/h (1 Bft) 0,00 %
26.07.2015 06:55 13,7 C 63 % 1017,0 hPa 0,0 l/m 0,0 km/h (0 Bft) N-NW 336 5 min 0,000 mm 1,0 UV-I 346 W/m 6,8 C 13,7 C 0,0 km/h (0 Bft) 0,00 %
26.07.2015 07:00 14,0 C 64 % 1016,9 hPa 0,0 l/m 0,0 km/h (0 Bft) NW 321 5 min 0,000 mm 1,0 UV-I 349 W/m 7,3 C 14,0 C 0,0 km/h (0 Bft) 0,00 %
26.07.2015 07:05 14,1 C 64 % 1016,9 hPa 0,0 l/m 0,7 km/h (0 Bft) NW 311 5 min 0,000 mm 1,0 UV-I 352 W/m 7,4 C 14,1 C 4,0 km/h (1 Bft) 0,00 %
26.07.2015 07:10 14,2 C 63 % 1017,2 hPa 0,0 l/m 2,9 km/h (1 Bft) N 356 5 min 0,000 mm 1,0 UV-I 354 W/m 7,3 C 14,2 C 7,9 km/h (2 Bft) 0,00 %
26.07.2015 07:15 14,4 C 62 % 1017,1 hPa 0,0 l/m 0,0 km/h (0 Bft) N-NO 28 5 min 0,000 mm 1,0 UV-I 356 W/m 7,2 C 14,4 C 0,0 km/h (0 Bft) 0,00 %
26.07.2015 07:20 14,8 C 60 % 1016,8 hPa 0,0 l/m 0,4 km/h (0 Bft) N-NW 333 5 min 0,000 mm 1,0 UV-I 359 W/m 7,1 C 14,8 C 4,0 km/h (1 Bft) 0,00 %
26.07.2015 07:25 15,2 C 60 % 1016,9 hPa 0,0 l/m 0,7 km/h (0 Bft) W 263 5 min 0,000 mm 1,0 UV-I 360 W/m 7,5 C 15,2 C 4,0 km/h (1 Bft) 0,00 %
26.07.2015 07:30 15,2 C 61 % 1016,8 hPa 0,0 l/m 0,4 km/h (0 Bft) NW 316 5 min 0,000 mm 1,0 UV-I 360 W/m 7,7 C 15,2 C 4,0 km/h (1 Bft) 0,00 %
26.07.2015 07:35 15,1 C 61 % 1016,9 hPa 0,0 l/m 1,8 km/h (1 Bft) NW 305 5 min 0,000 mm 1,0 UV-I 363 W/m 7,6 C 15,1 C 4,0 km/h (1 Bft) 0,00 %
26.07.2015 07:40 15,3 C 60 % 1016,9 hPa 0,0 l/m 0,4 km/h (0 Bft) N 354 5 min 0,000 mm 1,0 UV-I 369 W/m 7,6 C 15,3 C 4,0 km/h (1 Bft) 0,00 %
26.07.2015 07:45 15,8 C 58 % 1016,8 hPa 0,0 l/m 0,4 km/h (0 Bft) N-NW 328 5 min 0,000 mm 1,0 UV-I 377 W/m 7,6 C 15,8 C 4,0 km/h (1 Bft) 0,00 %
26.07.2015 07:50 15,9 C 59 % 1016,8 hPa 0,0 l/m 4,3 km/h (1 Bft) W-NW 288 5 min 0,000 mm 1,0 UV-I 381 W/m 7,9 C 15,9 C 7,9 km/h (2 Bft) 0,00 %
26.07.2015 07:55 15,8 C 56 % 1016,8 hPa 0,0 l/m 0,7 km/h (0 Bft) N 351 5 min 0,000 mm 1,0 UV-I 384 W/m 7,0 C 15,8 C 4,0 km/h (1 Bft) 0,00 %
26.07.2015 08:00 16,1 C 56 % 1016,9 hPa 0,0 l/m 5,8 km/h (2 Bft) SW 228 5 min 0,000 mm 1,0 UV-I 388 W/m 7,3 C 16,1 C 7,9 km/h (2 Bft) 0,00 %
26.07.2015 08:05 16,5 C 54 % 1016,8 hPa 0,0 l/m 0,7 km/h (0 Bft) W 278 5 min 0,000 mm 1,0 UV-I 393 W/m 7,2 C 16,5 C 4,0 km/h (1 Bft) 0,00 %
26.07.2015 08:10 16,5 C 53 % 1016,6 hPa 0,0 l/m 5,4 km/h (1 Bft) SW 229 5 min 0,000 mm 1,0 UV-I 401 W/m 6,9 C 16,5 C 11,9 km/h (2 Bft) 0,00 %
26.07.2015 08:15 16,5 C 53 % 1016,5 hPa 0,0 l/m 6,5 km/h (2 Bft) W-NW 291 5 min 0,000 mm 1,0 UV-I 408 W/m 6,9 C 16,5 C 7,9 km/h (2 Bft) 0,00 %
26.07.2015 08:20 16,7 C 52 % 1016,4 hPa 0,0 l/m 1,4 km/h (1 Bft) O 94 5 min 0,000 mm 1,0 UV-I 410 W/m 6,8 C 16,7 C 4,0 km/h (1 Bft) 0,00 %
26.07.2015 08:25 17,0 C 53 % 1016,7 hPa 0,0 l/m 5,4 km/h (1 Bft) W-NW 285 5 min 0,000 mm 1,0 UV-I 393 W/m 7,4 C 17,0 C 7,9 km/h (2 Bft) 0,00 %
26.07.2015 08:30 16,9 C 53 % 1016,7 hPa 0,0 l/m 0,0 km/h (0 Bft) N-NW 337 5 min 0,000 mm 1,0 UV-I 439 W/m 7,3 C 16,9 C 0,0 km/h (0 Bft) 0,00 %
26.07.2015 08:35 16,7 C 52 % 1016,5 hPa 0,0 l/m 1,4 km/h (1 Bft) O-NO 62 5 min 0,000 mm 1,0 UV-I 449 W/m 6,8 C 16,7 C 4,0 km/h (1 Bft) 0,00 %
26.07.2015 08:40 16,9 C 53 % 1016,7 hPa 0,0 l/m 2,9 km/h (1 Bft) NW 320 5 min 0,000 mm 1,0 UV-I 459 W/m 7,3 C 16,9 C 4,0 km/h (1 Bft) 0,00 %
26.07.2015 08:45 17,2 C 52 % 1016,6 hPa 0,0 l/m 5,4 km/h (1 Bft) N-NW 331 5 min 0,000 mm 1,0 UV-I 449 W/m 7,3 C 17,2 C 7,9 km/h (2 Bft) 0,00 %
26.07.2015 08:50 17,4 C 52 % 1016,4 hPa 0,0 l/m 0,0 km/h (0 Bft) N 355 5 min 0,000 mm 2,0 UV-I 477 W/m 7,4 C 17,4 C 0,0 km/h (0 Bft) 0,00 %
26.07.2015 08:55 17,7 C 52 % 1016,7 hPa 0,0 l/m 2,2 km/h (1 Bft) O-SO 109 5 min 0,000 mm 2,0 UV-I 491 W/m 7,7 C 17,7 C 4,0 km/h (1 Bft) 0,00 %
26.07.2015 09:00 17,8 C 51 % 1016,5 hPa 0,0 l/m 5,4 km/h (1 Bft) W-NW 288 5 min 0,000 mm 2,0 UV-I 500 W/m 7,5 C 17,8 C 7,9 km/h (2 Bft) 0,00 %
26.07.2015 09:05 17,8 C 52 % 1016,3 hPa 0,0 l/m 1,8 km/h (1 Bft) N-NW 339 5 min 0,000 mm 2,0 UV-I 513 W/m 7,8 C 17,8 C 4,0 km/h (1 Bft) 0,00 %
26.07.2015 09:10 17,8 C 53 % 1016,4 hPa 0,0 l/m 0,0 km/h (0 Bft) N 355 5 min 0,000 mm 2,0 UV-I 525 W/m 8,1 C 17,8 C 0,0 km/h (0 Bft) 0,00 %
26.07.2015 09:15 17,8 C 52 % 1016,2 hPa 0,0 l/m 1,4 km/h (1 Bft) O-NO 74 5 min 0,000 mm 2,0 UV-I 536 W/m 7,8 C 17,8 C 4,0 km/h (1 Bft) 0,00 %
26.07.2015 09:20 17,9 C 50 % 1016,1 hPa 0,0 l/m 2,2 km/h (1 Bft) W-NW 293 5 min 0,000 mm 2,0 UV-I 544 W/m 7,3 C 17,9 C 4,0 km/h (1 Bft) 0,00 %
26.07.2015 09:25 18,1 C 47 % 1015,7 hPa 0,0 l/m 1,8 km/h (1 Bft) N-NO 33 5 min 0,000 mm 2,0 UV-I 565 W/m 6,6 C 18,1 C 4,0 km/h (1 Bft) 0,00 %
26.07.2015 09:30 18,6 C 48 % 1015,7 hPa 0,0 l/m 0,7 km/h (0 Bft) O-SO 113 5 min 0,000 mm 2,0 UV-I 576 W/m 7,4 C 18,6 C 4,0 km/h (1 Bft) 0,00 %
26.07.2015 09:35 19,0 C 45 % 1015,7 hPa 0,0 l/m 0,0 km/h (0 Bft) NO 46 5 min 0,000 mm 2,0 UV-I 583 W/m 6,8 C 19,0 C 0,0 km/h (0 Bft) 0,00 %
26.07.2015 09:40 19,5 C 43 % 1015,5 hPa 0,0 l/m 0,4 km/h (0 Bft) N-NW 336 5 min 0,000 mm 2,0 UV-I 593 W/m 6,6 C 19,5 C 4,0 km/h (1 Bft) 0,00 %
26.07.2015 09:45 19,7 C 45 % 1015,4 hPa 0,0 l/m 7,2 km/h (2 Bft) W 265 5 min 0,000 mm 2,0 UV-I 603 W/m 7,4 C 19,4 C 11,9 km/h (2 Bft) 0,00 %
26.07.2015 09:50 19,7 C 44 % 1015,6 hPa 0,0 l/m 0,4 km/h (0 Bft) N-NW 345 5 min 0,000 mm 2,0 UV-I 621 W/m 7,1 C 19,7 C 4,0 km/h (1 Bft) 0,00 %
26.07.2015 09:55 19,8 C 46 % 1015,2 hPa 0,0 l/m 0,0 km/h (0 Bft) NO 35 5 min 0,000 mm 2,0 UV-I 631 W/m 7,8 C 19,8 C 0,0 km/h (0 Bft) 0,00 %
26.07.2015 10:00 19,8 C 45 % 1015,1 hPa 0,0 l/m 1,8 km/h (1 Bft) N-NW 332 5 min 0,000 mm 2,0 UV-I 639 W/m 7,5 C 19,8 C 4,0 km/h (1 Bft) 0,00 %
26.07.2015 10:05 19,7 C 44 % 1014,9 hPa 0,0 l/m 3,2 km/h (1 Bft) S-SW 213 5 min 0,000 mm 3,0 UV-I 653 W/m 7,1 C 19,7 C 4,0 km/h (1 Bft) 0,00 %
26.07.2015 10:10 19,6 C 45 % 1015,0 hPa 0,0 l/m 4,3 km/h (1 Bft) W 272 5 min 0,000 mm 3,0 UV-I 671 W/m 7,3 C 19,6 C 7,9 km/h (2 Bft) 0,00 %
26.07.2015 10:15 19,6 C 46 % 1015,0 hPa 0,0 l/m 2,2 km/h (1 Bft) NW 311 5 min 0,000 mm 3,0 UV-I 675 W/m 7,7 C 19,6 C 7,9 km/h (2 Bft) 0,00 %
26.07.2015 10:20 19,8 C 43 % 1014,9 hPa 0,0 l/m 1,4 km/h (1 Bft) O-NO 78 5 min 0,000 mm 3,0 UV-I 680 W/m 6,9 C 19,8 C 4,0 km/h (1 Bft) 0,00 %
26.07.2015 10:25 19,9 C 41 % 1015,0 hPa 0,0 l/m 0,4 km/h (0 Bft) N 356 5 min 0,000 mm 3,0 UV-I 691 W/m 6,3 C 19,9 C 4,0 km/h (1 Bft) 0,00 %
26.07.2015 10:30 20,1 C 41 % 1014,7 hPa 0,0 l/m 0,0 km/h (0 Bft) N-NO 30 5 min 0,000 mm 3,0 UV-I 701 W/m 6,4 C 20,1 C 0,0 km/h (0 Bft) 0,00 %
26.07.2015 10:35 20,6 C 39 % 1014,8 hPa 0,0 l/m 6,8 km/h (2 Bft) NW 318 5 min 0,000 mm 3,0 UV-I 707 W/m 6,2 C 20,4 C 7,9 km/h (2 Bft) 0,00 %
26.07.2015 10:40 20,5 C 39 % 1014,8 hPa 0,0 l/m 10,4 km/h (2 Bft) W-SW 255 5 min 0,000 mm 3,0 UV-I 717 W/m 6,1 C 19,1 C 11,9 km/h (2 Bft) 0,00 %
26.07.2015 10:45 20,1 C 45 % 1014,9 hPa 0,0 l/m 1,4 km/h (1 Bft) N-NW 335 5 min 0,000 mm 3,0 UV-I 725 W/m 7,8 C 20,1 C 4,0 km/h (1 Bft) 0,00 %
26.07.2015 10:50 20,3 C 40 % 1014,8 hPa 0,0 l/m 4,3 km/h (1 Bft) NW 325 5 min 0,000 mm 3,0 UV-I 733 W/m 6,3 C 20,3 C 7,9 km/h (2 Bft) 0,00 %
26.07.2015 10:55 20,7 C 41 % 1014,6 hPa 0,0 l/m 6,5 km/h (2 Bft) NW 315 5 min 0,000 mm 4,0 UV-I 741 W/m 7,0 C 20,7 C 7,9 km/h (2 Bft) 0,00 %
26.07.2015 11:00 20,5 C 41 % 1014,8 hPa 0,0 l/m 0,4 km/h (0 Bft) NW 317 5 min 0,000 mm 4,0 UV-I 747 W/m 6,8 C 20,5 C 4,0 km/h (1 Bft) 0,00 %
26.07.2015 11:05 20,3 C 42 % 1014,6 hPa 0,0 l/m 6,8 km/h (2 Bft) W 263 5 min 0,000 mm 4,0 UV-I 753 W/m 7,0 C 20,1 C 7,9 km/h (2 Bft) 0,00 %
26.07.2015 11:10 20,4 C 40 % 1014,8 hPa 0,0 l/m 2,9 km/h (1 Bft) N-NW 329 5 min 0,000 mm 4,0 UV-I 757 W/m 6,3 C 20,4 C 7,9 km/h (2 Bft) 0,00 %
26.07.2015 11:15 20,6 C 39 % 1014,7 hPa 0,0 l/m 3,2 km/h (1 Bft) N-NW 346 5 min 0,000 mm 4,0 UV-I 757 W/m 6,2 C 20,6 C 7,9 km/h (2 Bft) 0,00 %
26.07.2015 11:20 21,0 C 38 % 1014,7 hPa 0,0 l/m 0,4 km/h (0 Bft) N 350 5 min 0,000 mm 4,0 UV-I 766 W/m 6,1 C 21,0 C 4,0 km/h (1 Bft) 0,00 %
26.07.2015 11:25 21,3 C 38 % 1014,3 hPa 0,0 l/m 3,2 km/h (1 Bft) W-NW 285 5 min 0,000 mm 4,0 UV-I 769 W/m 6,4 C 21,3 C 7,9 km/h (2 Bft) 0,00 %
26.07.2015 11:30 21,4 C 37 % 1014,4 hPa 0,0 l/m 0,4 km/h (0 Bft) NO 39 5 min 0,000 mm 4,0 UV-I 773 W/m 6,1 C 21,4 C 4,0 km/h (1 Bft) 0,00 %
26.07.2015 11:35 21,4 C 38 % 1014,2 hPa 0,0 l/m 0,4 km/h (0 Bft) SO 136 5 min 0,000 mm 5,0 UV-I 776 W/m 6,5 C 21,4 C 4,0 km/h (1 Bft) 0,00 %
26.07.2015 11:40 21,6 C 38 % 1014,0 hPa 0,0 l/m 0,7 km/h (0 Bft) N-NO 30 5 min 0,000 mm 5,0 UV-I 783 W/m 6,7 C 21,6 C 4,0 km/h (1 Bft) 0,00 %
26.07.2015 11:45 21,6 C 39 % 1014,0 hPa 0,0 l/m 0,7 km/h (0 Bft) O-NO 76 5 min 0,000 mm 5,0 UV-I 790 W/m 7,0 C 21,6 C 4,0 km/h (1 Bft) 0,00 %
26.07.2015 11:50 21,4 C 34 % 1013,9 hPa 0,0 l/m 0,0 km/h (0 Bft) NW 313 5 min 0,000 mm 5,0 UV-I 790 W/m 4,9 C 21,4 C 0,0 km/h (0 Bft) 0,00 %
26.07.2015 11:55 21,4 C 38 % 1013,9 hPa 0,0 l/m 5,8 km/h (2 Bft) W-SW 257 5 min 0,000 mm 5,0 UV-I 802 W/m 6,5 C 21,4 C 7,9 km/h (2 Bft) 0,00 %
26.07.2015 12:00 21,5 C 38 % 1013,8 hPa 0,0 l/m 4,3 km/h (1 Bft) O 79 5 min 0,000 mm 5,0 UV-I 804 W/m 6,6 C 21,5 C 7,9 km/h (2 Bft) 0,00 %
26.07.2015 12:05 21,6 C 34 % 1013,8 hPa 0,0 l/m 0,4 km/h (0 Bft) NO 36 5 min 0,000 mm 5,0 UV-I 807 W/m 5,1 C 21,6 C 4,0 km/h (1 Bft) 0,00 %
26.07.2015 12:10 21,7 C 38 % 1013,9 hPa 0,0 l/m 2,9 km/h (1 Bft) W 272 5 min 0,000 mm 5,0 UV-I 811 W/m 6,8 C 21,7 C 4,0 km/h (1 Bft) 0,00 %
26.07.2015 12:15 21,5 C 38 % 1013,7 hPa 0,0 l/m 0,0 km/h (0 Bft) NO 35 5 min 0,000 mm 5,0 UV-I 816 W/m 6,6 C 21,5 C 0,0 km/h (0 Bft) 0,00 %
26.07.2015 12:20 21,3 C 36 % 1013,7 hPa 0,0 l/m 3,2 km/h (1 Bft) W-SW 258 5 min 0,000 mm 5,0 UV-I 816 W/m 5,6 C 21,3 C 7,9 km/h (2 Bft) 0,00 %
26.07.2015 12:25 21,3 C 38 % 1013,9 hPa 0,0 l/m 0,0 km/h (0 Bft) N-NW 348 5 min 0,000 mm 5,0 UV-I 824 W/m 6,4 C 21,3 C 0,0 km/h (0 Bft) 0,00 %
26.07.2015 12:30 21,3 C 34 % 1013,8 hPa 0,0 l/m 0,0 km/h (0 Bft) N-NO 23 5 min 0,000 mm 5,0 UV-I 831 W/m 4,8 C 21,3 C 0,0 km/h (0 Bft) 0,00 %
26.07.2015 12:35 21,1 C 38 % 1013,6 hPa 0,0 l/m 0,7 km/h (0 Bft) N 354 5 min 0,000 mm 5,0 UV-I 837 W/m 6,2 C 21,1 C 4,0 km/h (1 Bft) 0,00 %
26.07.2015 12:40 21,3 C 39 % 1013,1 hPa 0,0 l/m 2,2 km/h (1 Bft) SO 127 5 min 0,000 mm 5,0 UV-I 852 W/m 6,8 C 21,3 C 4,0 km/h (1 Bft) 0,00 %
26.07.2015 12:45 21,5 C 38 % 1013,2 hPa 0,0 l/m 3,2 km/h (1 Bft) W-NW 282 5 min 0,000 mm 5,0 UV-I 852 W/m 6,6 C 21,5 C 7,9 km/h (2 Bft) 0,00 %
26.07.2015 12:50 21,4 C 33 % 1013,3 hPa 0,0 l/m 4,7 km/h (1 Bft) NW 326 5 min 0,000 mm 6,0 UV-I 867 W/m 4,5 C 21,4 C 7,9 km/h (2 Bft) 0,00 %
26.07.2015 12:55 21,4 C 36 % 1013,2 hPa 0,0 l/m 4,0 km/h (1 Bft) O 85 5 min 0,000 mm 6,0 UV-I 878 W/m 5,7 C 21,4 C 7,9 km/h (2 Bft) 0,00 %
26.07.2015 13:00 21,4 C 36 % 1013,2 hPa 0,0 l/m 3,2 km/h (1 Bft) O-NO 63 5 min 0,000 mm 5,0 UV-I 923 W/m 5,7 C 21,4 C 7,9 km/h (2 Bft) 0,00 %
26.07.2015 13:05 21,5 C 34 % 1013,1 hPa 0,0 l/m 0,0 km/h (0 Bft) NO 42 5 min 0,000 mm 5,0 UV-I 912 W/m 5,0 C 21,5 C 0,0 km/h (0 Bft) 0,00 %
26.07.2015 13:10 21,6 C 38 % 1012,9 hPa 0,0 l/m 2,9 km/h (1 Bft) W-SW 239 5 min 0,000 mm 5,0 UV-I 907 W/m 6,7 C 21,6 C 4,0 km/h (1 Bft) 0,00 %
26.07.2015 13:15 21,8 C 35 % 1013,1 hPa 0,0 l/m 0,7 km/h (0 Bft) N 352 5 min 0,000 mm 5,0 UV-I 919 W/m 5,7 C 21,8 C 4,0 km/h (1 Bft) 0,00 %
26.07.2015 13:20 22,0 C 35 % 1012,8 hPa 0,0 l/m 0,0 km/h (0 Bft) N 5 5 min 0,000 mm 5,0 UV-I 893 W/m 5,8 C 22,0 C 0,0 km/h (0 Bft) 0,00 %
26.07.2015 13:25 22,1 C 35 % 1013,0 hPa 0,0 l/m 4,7 km/h (1 Bft) NW 315 5 min 0,000 mm 5,0 UV-I 877 W/m 5,9 C 22,1 C 7,9 km/h (2 Bft) 0,00 %
26.07.2015 13:30 22,1 C 36 % 1012,8 hPa 0,0 l/m 0,0 km/h (0 Bft) NO 43 5 min 0,000 mm 5,0 UV-I 875 W/m 6,3 C 22,1 C 0,0 km/h (0 Bft) 0,00 %
26.07.2015 13:35 22,3 C 37 % 1012,6 hPa 0,0 l/m 0,4 km/h (0 Bft) N-NO 30 5 min 0,000 mm 5,0 UV-I 890 W/m 6,9 C 22,3 C 4,0 km/h (1 Bft) 0,00 %
26.07.2015 13:40 22,5 C 39 % 1012,6 hPa 0,0 l/m 2,2 km/h (1 Bft) N-NW 336 5 min 0,000 mm 5,0 UV-I 895 W/m 7,8 C 22,5 C 4,0 km/h (1 Bft) 0,00 %
26.07.2015 13:45 22,6 C 37 % 1012,5 hPa 0,0 l/m 0,0 km/h (0 Bft) NO 56 5 min 0,000 mm 5,0 UV-I 892 W/m 7,2 C 22,6 C 0,0 km/h (0 Bft) 0,00 %
26.07.2015 13:50 22,7 C 34 % 1012,3 hPa 0,0 l/m 0,4 km/h (0 Bft) O 85 5 min 0,000 mm 5,0 UV-I 905 W/m 6,0 C 22,7 C 4,0 km/h (1 Bft) 0,00 %
26.07.2015 13:55 22,7 C 35 % 1012,1 hPa 0,0 l/m 1,8 km/h (1 Bft) O-SO 119 5 min 0,000 mm 5,0 UV-I 906 W/m 6,4 C 22,7 C 4,0 km/h (1 Bft) 0,00 %
26.07.2015 14:00 22,6 C 36 % 1012,1 hPa 0,0 l/m 0,0 km/h (0 Bft) N 351 5 min 0,000 mm 5,0 UV-I 909 W/m 6,8 C 22,6 C 0,0 km/h (0 Bft) 0,00 %
26.07.2015 14:05 22,4 C 35 % 1012,0 hPa 0,0 l/m 4,7 km/h (1 Bft) NW 307 5 min 0,000 mm 5,0 UV-I 906 W/m 6,2 C 22,4 C 11,9 km/h (2 Bft) 0,00 %
26.07.2015 14:10 22,4 C 36 % 1012,0 hPa 0,0 l/m 6,8 km/h (2 Bft) W-NW 290 5 min 0,000 mm 5,0 UV-I 909 W/m 6,6 C 22,3 C 7,9 km/h (2 Bft) 0,00 %
26.07.2015 14:15 22,6 C 37 % 1012,0 hPa 0,0 l/m 0,0 km/h (0 Bft) N 354 5 min 0,000 mm 5,0 UV-I 914 W/m 7,2 C 22,6 C 0,0 km/h (0 Bft) 0,00 %
26.07.2015 14:20 22,9 C 34 % 1011,6 hPa 0,0 l/m 0,0 km/h (0 Bft) NO 52 5 min 0,000 mm 5,0 UV-I 911 W/m 6,2 C 22,9 C 0,0 km/h (0 Bft) 0,00 %
26.07.2015 14:25 23,3 C 31 % 1011,4 hPa 0,0 l/m 1,8 km/h (1 Bft) O-NO 70 5 min 0,000 mm 5,0 UV-I 917 W/m 5,2 C 23,3 C 4,0 km/h (1 Bft) 0,00 %
26.07.2015 14:30 23,3 C 33 % 1011,4 hPa 0,0 l/m 0,0 km/h (0 Bft) NO 52 5 min 0,000 mm 5,0 UV-I 922 W/m 6,1 C 23,3 C 0,0 km/h (0 Bft) 0,00 %
26.07.2015 14:35 23,1 C 35 % 1011,2 hPa 0,0 l/m 3,2 km/h (1 Bft) W 273 5 min 0,000 mm 5,0 UV-I 917 W/m 6,8 C 23,1 C 7,9 km/h (2 Bft) 0,00 %
26.07.2015 14:40 23,5 C 30 % 1011,0 hPa 0,0 l/m 0,0 km/h (0 Bft) N-NW 340 5 min 0,000 mm 5,0 UV-I 914 W/m 4,9 C 23,5 C 0,0 km/h (0 Bft) 0,00 %
26.07.2015 14:45 23,9 C 31 % 1011,0 hPa 0,0 l/m 2,9 km/h (1 Bft) N-NW 337 5 min 0,000 mm 4,0 UV-I 913 W/m 5,7 C 23,9 C 4,0 km/h (1 Bft) 0,00 %
26.07.2015 14:50 24,1 C 31 % 1010,8 hPa 0,0 l/m 0,0 km/h (0 Bft) NO 36 5 min 0,000 mm 4,0 UV-I 920 W/m 5,9 C 24,1 C 0,0 km/h (0 Bft) 0,00 %
26.07.2015 14:55 24,1 C 30 % 1010,5 hPa 0,0 l/m 0,0 km/h (0 Bft) NW 317 5 min 0,000 mm 4,0 UV-I 911 W/m 5,4 C 24,1 C 0,0 km/h (0 Bft) 0,00 %
26.07.2015 15:00 24,1 C 33 % 1010,6 hPa 0,0 l/m 4,7 km/h (1 Bft) NW 324 5 min 0,000 mm 4,0 UV-I 912 W/m 6,8 C 24,1 C 7,9 km/h (2 Bft) 0,00 %
26.07.2015 15:05 24,2 C 30 % 1010,3 hPa 0,0 l/m 0,0 km/h (0 Bft) O-NO 64 5 min 0,000 mm 4,0 UV-I 908 W/m 5,5 C 24,2 C 0,0 km/h (0 Bft) 0,00 %
26.07.2015 15:10 24,2 C 29 % 1010,3 hPa 0,0 l/m 0,0 km/h (0 Bft) O-NO 74 5 min 0,000 mm 4,0 UV-I 909 W/m 5,0 C 24,2 C 0,0 km/h (0 Bft) 0,00 %
26.07.2015 15:15 24,2 C 30 % 1010,0 hPa 0,0 l/m 2,9 km/h (1 Bft) NW 325 5 min 0,000 mm 4,0 UV-I 892 W/m 5,5 C 24,2 C 4,0 km/h (1 Bft) 0,00 %
26.07.2015 15:20 24,3 C 31 % 1009,8 hPa 0,0 l/m 2,2 km/h (1 Bft) NW 315 5 min 0,000 mm 4,0 UV-I 891 W/m 6,1 C 24,3 C 4,0 km/h (1 Bft) 0,00 %
26.07.2015 15:25 24,4 C 30 % 1009,7 hPa 0,0 l/m 0,0 km/h (0 Bft) NO 38 5 min 0,000 mm 4,0 UV-I 880 W/m 5,7 C 24,4 C 0,0 km/h (0 Bft) 0,00 %
26.07.2015 15:30 24,6 C 28 % 1009,7 hPa 0,0 l/m 0,4 km/h (0 Bft) N 351 5 min 0,000 mm 4,0 UV-I 877 W/m 4,9 C 24,6 C 4,0 km/h (1 Bft) 0,00 %
26.07.2015 15:35 24,8 C 29 % 1009,4 hPa 0,0 l/m 0,0 km/h (0 Bft) NO 37 5 min 0,000 mm 4,0 UV-I 841 W/m 5,5 C 24,8 C 0,0 km/h (0 Bft) 0,00 %
26.07.2015 15:40 24,9 C 29 % 1009,5 hPa 0,0 l/m 0,0 km/h (0 Bft) O-NO 60 5 min 0,000 mm 3,0 UV-I 875 W/m 5,6 C 24,9 C 0,0 km/h (0 Bft) 0,00 %
26.07.2015 15:45 24,7 C 30 % 1009,4 hPa 0,0 l/m 0,0 km/h (0 Bft) O-NO 60 5 min 0,000 mm 3,0 UV-I 857 W/m 6,0 C 24,7 C 0,0 km/h (0 Bft) 0,00 %
26.07.2015 15:50 24,4 C 30 % 1009,0 hPa 0,0 l/m 0,0 km/h (0 Bft) N-NO 26 5 min 0,000 mm 3,0 UV-I 874 W/m 5,7 C 24,4 C 0,0 km/h (0 Bft) 0,00 %
26.07.2015 15:55 24,3 C 29 % 1009,2 hPa 0,0 l/m 4,0 km/h (1 Bft) N-NO 20 5 min 0,000 mm 3,0 UV-I 878 W/m 5,1 C 24,3 C 7,9 km/h (2 Bft) 0,00 %
26.07.2015 16:00 24,3 C 31 % 1009,1 hPa 0,0 l/m 0,7 km/h (0 Bft) N 356 5 min 0,000 mm 3,0 UV-I 869 W/m 6,1 C 24,3 C 4,0 km/h (1 Bft) 0,00 %
26.07.2015 16:05 24,1 C 30 % 1009,0 hPa 0,0 l/m 0,0 km/h (0 Bft) N-NO 17 5 min 0,000 mm 3,0 UV-I 865 W/m 5,4 C 24,1 C 0,0 km/h (0 Bft) 0,00 %
26.07.2015 16:10 24,0 C 30 % 1008,9 hPa 0,0 l/m 0,0 km/h (0 Bft) NO 54 5 min 0,000 mm 3,0 UV-I 859 W/m 5,3 C 24,0 C 0,0 km/h (0 Bft) 0,00 %
26.07.2015 16:15 24,1 C 30 % 1008,8 hPa 0,0 l/m 0,0 km/h (0 Bft) O-NO 73 5 min 0,000 mm 3,0 UV-I 867 W/m 5,4 C 24,1 C 0,0 km/h (0 Bft) 0,00 %
26.07.2015 16:20 24,1 C 30 % 1008,8 hPa 0,0 l/m 1,8 km/h (1 Bft) O-SO 119 5 min 0,000 mm 3,0 UV-I 769 W/m 5,4 C 24,1 C 4,0 km/h (1 Bft) 0,00 %
26.07.2015 16:25 24,2 C 31 % 1008,5 hPa 0,0 l/m 1,4 km/h (1 Bft) N-NO 33 5 min 0,000 mm 3,0 UV-I 808 W/m 6,0 C 24,2 C 4,0 km/h (1 Bft) 0,00 %
26.07.2015 16:30 24,3 C 31 % 1008,4 hPa 0,0 l/m 1,4 km/h (1 Bft) NW 322 5 min 0,000 mm 3,0 UV-I 736 W/m 6,1 C 24,3 C 4,0 km/h (1 Bft) 0,00 %
26.07.2015 16:35 24,0 C 32 % 1008,4 hPa 0,0 l/m 5,4 km/h (1 Bft) NW 304 5 min 0,000 mm 3,0 UV-I 745 W/m 6,3 C 24,0 C 7,9 km/h (2 Bft) 0,00 %
26.07.2015 16:40 23,8 C 32 % 1008,4 hPa 0,0 l/m 4,7 km/h (1 Bft) W-SW 256 5 min 0,000 mm 2,0 UV-I 703 W/m 6,1 C 23,8 C 7,9 km/h (2 Bft) 0,00 %
26.07.2015 16:45 23,8 C 31 % 1008,2 hPa 0,0 l/m 0,4 km/h (0 Bft) O 79 5 min 0,000 mm 2,0 UV-I 778 W/m 5,6 C 23,8 C 4,0 km/h (1 Bft) 0,00 %
26.07.2015 16:50 24,0 C 30 % 1008,1 hPa 0,0 l/m 0,0 km/h (0 Bft) N-NO 30 5 min 0,000 mm 2,0 UV-I 773 W/m 5,3 C 24,0 C 0,0 km/h (0 Bft) 0,00 %
26.07.2015 16:55 24,0 C 31 % 1008,2 hPa 0,0 l/m 5,4 km/h (1 Bft) NO 49 5 min 0,000 mm 2,0 UV-I 801 W/m 5,8 C 24,0 C 7,9 km/h (2 Bft) 0,00 %
26.07.2015 17:00 23,8 C 31 % 1007,9 hPa 0,0 l/m 0,0 km/h (0 Bft) NO 47 5 min 0,000 mm 1,0 UV-I 789 W/m 5,6 C 23,8 C 0,0 km/h (0 Bft) 0,00 %
26.07.2015 17:05 23,6 C 31 % 1008,1 hPa 0,0 l/m 5,4 km/h (1 Bft) O 80 5 min 0,000 mm 1,0 UV-I 738 W/m 5,5 C 23,6 C 7,9 km/h (2 Bft) 0,00 %
26.07.2015 17:10 23,6 C 31 % 1007,8 hPa 0,0 l/m 3,2 km/h (1 Bft) NO 52 5 min 0,000 mm 1,0 UV-I 794 W/m 5,5 C 23,6 C 4,0 km/h (1 Bft) 0,00 %
26.07.2015 17:15 23,4 C 32 % 1007,9 hPa 0,0 l/m 0,0 km/h (0 Bft) S 182 5 min 0,000 mm 1,0 UV-I 771 W/m 5,8 C 23,4 C 0,0 km/h (0 Bft) 0,00 %
26.07.2015 17:20 23,3 C 32 % 1007,7 hPa 0,0 l/m 0,4 km/h (0 Bft) NO 53 5 min 0,000 mm 1,0 UV-I 746 W/m 5,7 C 23,3 C 4,0 km/h (1 Bft) 0,00 %
26.07.2015 17:25 23,2 C 32 % 1007,6 hPa 0,0 l/m 1,8 km/h (1 Bft) SO 131 5 min 0,000 mm 1,0 UV-I 508 W/m 5,6 C 23,2 C 4,0 km/h (1 Bft) 0,00 %
26.07.2015 17:30 23,3 C 32 % 1007,6 hPa 0,0 l/m 0,4 km/h (0 Bft) O-NO 74 5 min 0,000 mm 1,0 UV-I 677 W/m 5,7 C 23,3 C 4,0 km/h (1 Bft) 0,00 %
26.07.2015 17:35 23,5 C 31 % 1007,7 hPa 0,0 l/m 0,0 km/h (0 Bft) O 90 5 min 0,000 mm 1,0 UV-I 625 W/m 5,4 C 23,5 C 0,0 km/h (0 Bft) 0,00 %
26.07.2015 17:40 23,8 C 31 % 1007,4 hPa 0,0 l/m 0,0 km/h (0 Bft) NO 40 5 min 0,000 mm 1,0 UV-I 681 W/m 5,6 C 23,8 C 0,0 km/h (0 Bft) 0,00 %
26.07.2015 17:45 24,0 C 30 % 1007,4 hPa 0,0 l/m 0,7 km/h (0 Bft) O 84 5 min 0,000 mm 1,0 UV-I 686 W/m 5,3 C 24,0 C 4,0 km/h (1 Bft) 0,00 %
26.07.2015 17:50 24,0 C 31 % 1007,3 hPa 0,0 l/m 0,7 km/h (0 Bft) O 88 5 min 0,000 mm 1,0 UV-I 677 W/m 5,8 C 24,0 C 4,0 km/h (1 Bft) 0,00 %
26.07.2015 17:55 24,0 C 31 % 1007,3 hPa 0,0 l/m 3,2 km/h (1 Bft) O-SO 109 5 min 0,000 mm 1,0 UV-I 646 W/m 5,8 C 24,0 C 4,0 km/h (1 Bft) 0,00 %
26.07.2015 18:00 24,0 C 31 % 1007,1 hPa 0,0 l/m 0,4 km/h (0 Bft) O-NO 74 5 min 0,000 mm 1,0 UV-I 517 W/m 5,8 C 24,0 C 4,0 km/h (1 Bft) 0,00 %
26.07.2015 18:05 23,9 C 32 % 1007,0 hPa 0,0 l/m 0,4 km/h (0 Bft) O-NO 77 5 min 0,000 mm 1,0 UV-I 450 W/m 6,2 C 23,9 C 4,0 km/h (1 Bft) 0,00 %
26.07.2015 18:10 23,6 C 33 % 1007,1 hPa 0,0 l/m 0,7 km/h (0 Bft) SO 130 5 min 0,000 mm 1,0 UV-I 433 W/m 6,4 C 23,6 C 4,0 km/h (1 Bft) 0,00 %
26.07.2015 18:15 23,2 C 33 % 1007,1 hPa 0,0 l/m 4,0 km/h (1 Bft) O 97 5 min 0,000 mm 1,0 UV-I 351 W/m 6,0 C 23,2 C 4,0 km/h (1 Bft) 0,00 %
26.07.2015 18:20 23,0 C 33 % 1007,2 hPa 0,0 l/m 0,0 km/h (0 Bft) O-NO 58 5 min 0,000 mm 1,0 UV-I 353 W/m 5,9 C 23,0 C 0,0 km/h (0 Bft) 0,00 %
26.07.2015 18:25 23,0 C 33 % 1007,2 hPa 0,0 l/m 0,0 km/h (0 Bft) NO 42 5 min 0,000 mm 1,0 UV-I 469 W/m 5,9 C 23,0 C 0,0 km/h (0 Bft) 0,00 %
26.07.2015 18:30 23,3 C 34 % 1007,1 hPa 0,0 l/m 0,0 km/h (0 Bft) NO 49 5 min 0,000 mm 1,0 UV-I 526 W/m 6,6 C 23,3 C 0,0 km/h (0 Bft) 0,00 %
26.07.2015 18:35 23,6 C 32 % 1006,9 hPa 0,0 l/m 0,0 km/h (0 Bft) NO 42 5 min 0,000 mm 1,0 UV-I 233 W/m 5,9 C 23,6 C 0,0 km/h (0 Bft) 0,00 %
26.07.2015 18:40 23,8 C 33 % 1006,8 hPa 0,0 l/m 0,4 km/h (0 Bft) O-NO 61 5 min 0,000 mm 1,0 UV-I 352 W/m 6,6 C 23,8 C 4,0 km/h (1 Bft) 0,00 %
26.07.2015 18:45 23,6 C 34 % 1007,0 hPa 0,0 l/m 0,0 km/h (0 Bft) O-SO 104 5 min 0,000 mm 1,0 UV-I 334 W/m 6,8 C 23,6 C 0,0 km/h (0 Bft) 0,00 %
26.07.2015 18:50 23,1 C 36 % 1006,8 hPa 0,0 l/m 0,0 km/h (0 Bft) NO 49 5 min 0,000 mm 1,0 UV-I 310 W/m 7,2 C 23,1 C 0,0 km/h (0 Bft) 0,00 %
26.07.2015 18:55 22,8 C 37 % 1006,8 hPa 0,0 l/m 0,0 km/h (0 Bft) NO 56 5 min 0,000 mm 1,0 UV-I 182 W/m 7,3 C 22,8 C 0,0 km/h (0 Bft) 0,00 %
26.07.2015 19:00 22,8 C 37 % 1006,8 hPa 0,0 l/m 0,4 km/h (0 Bft) O-SO 114 0 min 0,000 mm 1,0 UV-I 86 W/m 7,3 C 22,8 C 4,0 km/h (1 Bft) 0,00 %
26.07.2015 19:05 22,7 C 37 % 1006,8 hPa 0,0 l/m 0,0 km/h (0 Bft) NO 36 0 min 0,000 mm 1,0 UV-I 108 W/m 7,3 C 22,7 C 0,0 km/h (0 Bft) 0,00 %
26.07.2015 19:10 22,6 C 37 % 1006,5 hPa 0,0 l/m 0,7 km/h (0 Bft) O-SO 116 5 min 0,000 mm 1,0 UV-I 160 W/m 7,2 C 22,6 C 4,0 km/h (1 Bft) 0,00 %
26.07.2015 19:15 22,6 C 37 % 1006,8 hPa 0,0 l/m 0,0 km/h (0 Bft) NO 56 5 min 0,000 mm 1,0 UV-I 144 W/m 7,2 C 22,6 C 0,0 km/h (0 Bft) 0,00 %
26.07.2015 19:20 22,7 C 38 % 1006,6 hPa 0,0 l/m 6,5 km/h (2 Bft) O-SO 118 0 min 0,000 mm 1,0 UV-I 91 W/m 7,6 C 22,7 C 7,9 km/h (2 Bft) 0,00 %
26.07.2015 19:25 22,5 C 38 % 1006,5 hPa 0,0 l/m 5,8 km/h (2 Bft) O-SO 120 0 min 0,000 mm 1,0 UV-I 59 W/m 7,5 C 22,5 C 7,9 km/h (2 Bft) 0,00 %
26.07.2015 19:30 22,1 C 39 % 1006,6 hPa 0,0 l/m 0,0 km/h (0 Bft) O-NO 68 0 min 0,000 mm 0,0 UV-I 39 W/m 7,5 C 22,1 C 0,0 km/h (0 Bft) 0,00 %
26.07.2015 19:35 22,0 C 40 % 1006,5 hPa 0,0 l/m 0,0 km/h (0 Bft) O-NO 60 0 min 0,000 mm 0,0 UV-I 30 W/m 7,8 C 22,0 C 0,0 km/h (0 Bft) 0,00 %
26.07.2015 19:40 22,1 C 38 % 1006,3 hPa 0,0 l/m 0,7 km/h (0 Bft) O-NO 64 0 min 0,000 mm 0,0 UV-I 21 W/m 7,1 C 22,1 C 4,0 km/h (1 Bft) 0,00 %
26.07.2015 19:45 22,1 C 40 % 1006,2 hPa 0,0 l/m 0,0 km/h (0 Bft) O-SO 108 0 min 0,000 mm 0,0 UV-I 10 W/m 7,9 C 22,1 C 0,0 km/h (0 Bft) 0,00 %
26.07.2015 19:50 21,8 C 40 % 1006,5 hPa 0,0 l/m 2,2 km/h (1 Bft) O 82 0 min 0,000 mm 0,0 UV-I 3 W/m 7,6 C 21,8 C 4,0 km/h (1 Bft) 0,00 %
26.07.2015 19:55 21,3 C 42 % 1006,5 hPa 0,0 l/m 0,0 km/h (0 Bft) O-NO 73 0 min 0,000 mm 0,0 UV-I 3 W/m 7,9 C 21,3 C 0,0 km/h (0 Bft) 0,00 %
26.07.2015 20:00 21,0 C 42 % 1006,4 hPa 0,0 l/m 0,0 km/h (0 Bft) NO 47 0 min 0,000 mm 0,0 UV-I 3 W/m 7,6 C 21,0 C 0,0 km/h (0 Bft) 0,00 %
26.07.2015 20:05 20,8 C 44 % 1006,4 hPa 0,0 l/m 0,0 km/h (0 Bft) NO 48 0 min 0,000 mm 0,0 UV-I 3 W/m 8,1 C 20,8 C 0,0 km/h (0 Bft) 0,00 %
26.07.2015 20:10 20,6 C 46 % 1006,5 hPa 0,0 l/m 0,0 km/h (0 Bft) NO 54 0 min 0,000 mm 0,0 UV-I 0 W/m 8,6 C 20,6 C 0,0 km/h (0 Bft) 0,00 %
26.07.2015 20:15 20,4 C 46 % 1006,4 hPa 0,0 l/m 0,0 km/h (0 Bft) O 84 0 min 0,000 mm 0,0 UV-I 0 W/m 8,4 C 20,4 C 0,0 km/h (0 Bft) 0,00 %
26.07.2015 20:20 20,0 C 48 % 1006,4 hPa 0,0 l/m 0,0 km/h (0 Bft) O 87 0 min 0,000 mm 0,0 UV-I 0 W/m 8,7 C 20,0 C 0,0 km/h (0 Bft) 0,00 %
26.07.2015 20:25 19,7 C 50 % 1006,2 hPa 0,0 l/m 0,4 km/h (0 Bft) O 86 0 min 0,000 mm 0,0 UV-I 0 W/m 9,0 C 19,7 C 4,0 km/h (1 Bft) 0,00 %
26.07.2015 20:30 19,4 C 51 % 1006,2 hPa 0,0 l/m 0,0 km/h (0 Bft) NO 51 0 min 0,000 mm 0,0 UV-I 0 W/m 9,0 C 19,4 C 0,0 km/h (0 Bft) 0,00 %
26.07.2015 20:35 19,1 C 52 % 1006,2 hPa 0,0 l/m 0,0 km/h (0 Bft) O 79 0 min 0,000 mm 0,0 UV-I 0 W/m 9,0 C 19,1 C 0,0 km/h (0 Bft) 0,00 %
26.07.2015 20:40 18,8 C 52 % 1006,1 hPa 0,0 l/m 0,0 km/h (0 Bft) NO 42 0 min 0,000 mm 0,0 UV-I 0 W/m 8,7 C 18,8 C 0,0 km/h (0 Bft) 0,00 %
26.07.2015 20:45 18,5 C 53 % 1006,1 hPa 0,0 l/m 0,0 km/h (0 Bft) N-NO 33 0 min 0,000 mm 0,0 UV-I 0 W/m 8,7 C 18,5 C 0,0 km/h (0 Bft) 0,00 %
26.07.2015 20:50 18,2 C 54 % 1006,2 hPa 0,0 l/m 0,0 km/h (0 Bft) NO 46 0 min 0,000 mm 0,0 UV-I 0 W/m 8,7 C 18,2 C 0,0 km/h (0 Bft) 0,00 %
26.07.2015 20:55 18,0 C 55 % 1006,2 hPa 0,0 l/m 0,0 km/h (0 Bft) O-NO 68 0 min 0,000 mm 0,0 UV-I 0 W/m 8,8 C 18,0 C 0,0 km/h (0 Bft) 0,00 %
26.07.2015 21:00 17,8 C 55 % 1006,1 hPa 0,0 l/m 0,0 km/h (0 Bft) O-NO 68 0 min 0,000 mm 0,0 UV-I 0 W/m 8,6 C 17,8 C 0,0 km/h (0 Bft) 0,00 %
26.07.2015 21:05 17,7 C 57 % 1006,4 hPa 0,0 l/m 0,0 km/h (0 Bft) NO 51 0 min 0,000 mm 0,0 UV-I 0 W/m 9,1 C 17,7 C 0,0 km/h (0 Bft) 0,00 %
26.07.2015 21:10 17,5 C 58 % 1006,3 hPa 0,0 l/m 0,0 km/h (0 Bft) O-NO 71 0 min 0,000 mm 0,0 UV-I 0 W/m 9,1 C 17,5 C 0,0 km/h (0 Bft) 0,00 %
26.07.2015 21:15 17,3 C 60 % 1006,3 hPa 0,0 l/m 0,0 km/h (0 Bft) NO 54 0 min 0,000 mm 0,0 UV-I 0 W/m 9,5 C 17,3 C 0,0 km/h (0 Bft) 0,00 %
26.07.2015 21:20 17,2 C 59 % 1006,1 hPa 0,0 l/m 0,0 km/h (0 Bft) O-NO 75 0 min 0,000 mm 0,0 UV-I 0 W/m 9,1 C 17,2 C 0,0 km/h (0 Bft) 0,00 %
26.07.2015 21:25 17,0 C 60 % 1006,4 hPa 0,0 l/m 0,0 km/h (0 Bft) O-NO 75 0 min 0,000 mm 0,0 UV-I 0 W/m 9,2 C 17,0 C 0,0 km/h (0 Bft) 0,00 %
26.07.2015 21:30 16,8 C 60 % 1006,2 hPa 0,0 l/m 0,0 km/h (0 Bft) O-NO 57 0 min 0,000 mm 0,0 UV-I 0 W/m 9,0 C 16,8 C 0,0 km/h (0 Bft) 0,00 %
26.07.2015 21:35 16,6 C 60 % 1006,2 hPa 0,0 l/m 0,0 km/h (0 Bft) NO 49 0 min 0,000 mm 0,0 UV-I 0 W/m 8,8 C 16,6 C 0,0 km/h (0 Bft) 0,00 %
26.07.2015 21:40 16,5 C 59 % 1006,0 hPa 0,0 l/m 0,0 km/h (0 Bft) O 81 0 min 0,000 mm 0,0 UV-I 0 W/m 8,5 C 16,5 C 0,0 km/h (0 Bft) 0,00 %
26.07.2015 21:45 16,4 C 59 % 1006,4 hPa 0,0 l/m 0,0 km/h (0 Bft) NO 48 0 min 0,000 mm 0,0 UV-I 0 W/m 8,4 C 16,4 C 0,0 km/h (0 Bft) 0,00 %
26.07.2015 21:50 16,3 C 60 % 1006,3 hPa 0,0 l/m 0,0 km/h (0 Bft) NO 49 0 min 0,000 mm 0,0 UV-I 0 W/m 8,5 C 16,3 C 0,0 km/h (0 Bft) 0,00 %
26.07.2015 21:55 16,3 C 63 % 1006,3 hPa 0,0 l/m 0,0 km/h (0 Bft) O-NO 74 0 min 0,000 mm 0,0 UV-I 0 W/m 9,2 C 16,3 C 0,0 km/h (0 Bft) 0,00 %
26.07.2015 22:00 16,2 C 63 % 1006,2 hPa 0,0 l/m 0,0 km/h (0 Bft) NO 46 0 min 0,000 mm 0,0 UV-I 0 W/m 9,1 C 16,2 C 0,0 km/h (0 Bft) 0,00 %
26.07.2015 22:05 16,1 C 61 % 1006,2 hPa 0,0 l/m 0,0 km/h (0 Bft) NO 40 0 min 0,000 mm 0,0 UV-I 0 W/m 8,6 C 16,1 C 0,0 km/h (0 Bft) 0,00 %
26.07.2015 22:10 16,1 C 65 % 1006,3 hPa 0,0 l/m 0,0 km/h (0 Bft) NO 36 0 min 0,000 mm 0,0 UV-I 0 W/m 9,5 C 16,1 C 0,0 km/h (0 Bft) 0,00 %
26.07.2015 22:15 16,1 C 65 % 1006,1 hPa 0,0 l/m 0,0 km/h (0 Bft) NO 43 0 min 0,000 mm 0,0 UV-I 0 W/m 9,5 C 16,1 C 0,0 km/h (0 Bft) 0,00 %
26.07.2015 22:20 16,0 C 67 % 1006,1 hPa 0,0 l/m 0,0 km/h (0 Bft) NO 46 0 min 0,000 mm 0,0 UV-I 0 W/m 9,9 C 16,0 C 0,0 km/h (0 Bft) 0,00 %
26.07.2015 22:25 16,0 C 69 % 1006,2 hPa 0,0 l/m 0,0 km/h (0 Bft) NO 49 0 min 0,000 mm 0,0 UV-I 0 W/m 10,3 C 16,0 C 0,0 km/h (0 Bft) 0,00 %
26.07.2015 22:30 16,0 C 69 % 1006,1 hPa 0,0 l/m 0,0 km/h (0 Bft) NO 46 0 min 0,000 mm 0,0 UV-I 0 W/m 10,3 C 16,0 C 0,0 km/h (0 Bft) 0,00 %
26.07.2015 22:35 16,0 C 69 % 1005,9 hPa 0,0 l/m 0,0 km/h (0 Bft) NO 46 0 min 0,000 mm 0,0 UV-I 0 W/m 10,3 C 16,0 C 0,0 km/h (0 Bft) 0,00 %
26.07.2015 22:40 15,9 C 70 % 1006,1 hPa 0,0 l/m 0,0 km/h (0 Bft) NO 51 0 min 0,000 mm 0,0 UV-I 0 W/m 10,4 C 15,9 C 0,0 km/h (0 Bft) 0,00 %
26.07.2015 22:45 15,8 C 69 % 1005,8 hPa 0,0 l/m 0,0 km/h (0 Bft) O 100 0 min 0,000 mm 0,0 UV-I 0 W/m 10,1 C 15,8 C 0,0 km/h (0 Bft) 0,00 %
26.07.2015 22:50 15,8 C 70 % 1005,8 hPa 0,0 l/m 0,0 km/h (0 Bft) NO 49 0 min 0,000 mm 0,0 UV-I 0 W/m 10,3 C 15,8 C 0,0 km/h (0 Bft) 0,00 %
26.07.2015 22:55 15,8 C 69 % 1005,7 hPa 0,0 l/m 0,0 km/h (0 Bft) O-NO 75 0 min 0,000 mm 0,0 UV-I 0 W/m 10,1 C 15,8 C 0,0 km/h (0 Bft) 0,00 %
26.07.2015 23:00 15,8 C 67 % 1005,7 hPa 0,0 l/m 0,0 km/h (0 Bft) NO 53 0 min 0,000 mm 0,0 UV-I 0 W/m 9,7 C 15,8 C 0,0 km/h (0 Bft) 0,00 %
26.07.2015 23:05 15,8 C 68 % 1005,7 hPa 0,0 l/m 0,0 km/h (0 Bft) NO 49 0 min 0,000 mm 0,0 UV-I 0 W/m 9,9 C 15,8 C 0,0 km/h (0 Bft) 0,00 %
26.07.2015 23:10 15,7 C 66 % 1005,7 hPa 0,0 l/m 0,0 km/h (0 Bft) NO 41 0 min 0,000 mm 0,0 UV-I 0 W/m 9,4 C 15,7 C 0,0 km/h (0 Bft) 0,00 %
26.07.2015 23:15 15,7 C 72 % 1005,6 hPa 0,0 l/m 0,0 km/h (0 Bft) NO 48 0 min 0,000 mm 0,0 UV-I 0 W/m 10,7 C 15,7 C 0,0 km/h (0 Bft) 0,00 %
26.07.2015 23:20 15,7 C 73 % 1005,8 hPa 0,0 l/m 0,0 km/h (0 Bft) NO 43 0 min 0,000 mm 0,0 UV-I 0 W/m 10,9 C 15,7 C 0,0 km/h (0 Bft) 0,00 %
26.07.2015 23:25 15,7 C 72 % 1005,8 hPa 0,0 l/m 0,0 km/h (0 Bft) NO 54 0 min 0,000 mm 0,0 UV-I 0 W/m 10,7 C 15,7 C 0,0 km/h (0 Bft) 0,00 %
26.07.2015 23:30 15,6 C 73 % 1005,9 hPa 0,0 l/m 0,0 km/h (0 Bft) NO 51 0 min 0,000 mm 0,0 UV-I 0 W/m 10,8 C 15,6 C 0,0 km/h (0 Bft) 0,00 %
26.07.2015 23:35 15,6 C 72 % 1005,9 hPa 0,0 l/m 0,0 km/h (0 Bft) NO 48 0 min 0,000 mm 0,0 UV-I 0 W/m 10,6 C 15,6 C 0,0 km/h (0 Bft) 0,00 %
26.07.2015 23:40 15,6 C 72 % 1005,7 hPa 0,0 l/m 0,0 km/h (0 Bft) O-NO 64 0 min 0,000 mm 0,0 UV-I 0 W/m 10,6 C 15,6 C 0,0 km/h (0 Bft) 0,00 %
26.07.2015 23:45 15,6 C 71 % 1005,6 hPa 0,0 l/m 0,0 km/h (0 Bft) NO 45 0 min 0,000 mm 0,0 UV-I 0 W/m 10,4 C 15,6 C 0,0 km/h (0 Bft) 0,00 %
26.07.2015 23:50 15,6 C 72 % 1005,6 hPa 0,0 l/m 0,0 km/h (0 Bft) NO 41 0 min 0,000 mm 0,0 UV-I 0 W/m 10,6 C 15,6 C 0,0 km/h (0 Bft) 0,00 %
26.07.2015 23:55 15,5 C 73 % 1005,8 hPa 0,0 l/m 0,0 km/h (0 Bft) N-NO 31 0 min 0,000 mm 0,0 UV-I 0 W/m 10,7 C 15,5 C 0,0 km/h (0 Bft) 0,00 %
26.07.2015 23:59 15,5 C 73 % 1007,2 hPa 0,0 l/m 0,0 km/h (0 Bft) N-NO 31 0 min 0,000 mm 0,0 UV-I 0 W/m 10,7 C 15,5 C 0,0 km/h (0 Bft) 0,00 %
_ Min-Zeit 05:35 15:30 23:15 - 00:05 - - - - - - 12:50 03:55 00:05 00:00
Minimum _ 11,8 C 28 % 1005,6 hPa - 0,0 km/h (0 Bft) - - - - - - 4,5 C 11,2 C 0,0 km/h (0 Bft) 0,00 %
_ Max-Zeit 15:40 00:00 05:30 00:00 10:40 - - 05:55 00:00 12:50 13:00 00:00 15:40 02:20 00:00
Maximum _ 24,9 C 77 % 1017,4 hPa 0,0 l/m 10,4 km/h
W-SW (2 Bft)
- - 5 min 0,000 mm 6,0 UV-I 923 W/m 11,1 C 24,9 C 11,9 km/h
N-NW (2 Bft)
0,00 %
Durchschnitt _ 18,3 C 51 % 1012,2 hPa #0,0 l/m 1,8 km/h (1 Bft) W-SW - #13:15 h #0,000 mm 2,8 UV-I 591 W/m 7,3 C 18,2 C 3,7 km/h (1 Bft) 0,00 %